Regional Weather Roundup
Issued by NWS

Home | Current Version | Previous Version | Graphics & Text | Print | Product List | Glossary On
Versions: 1 2 3 4 5 6 7 8 9 10 11 12 13 14 15 16 17 18 19 20 21 22 23 24 25 26 27 28 29 30 31 32 33 34 35 36 37 38 39 40 41 42 43 44 45 46 47 48 49 50
000
ASUS43 KFSD 271002
RWRSD

WEATHER ROUNDUP FOR SOUTH DAKOTA
NATIONAL WEATHER SERVICE SIOUX FALLS SD
500 AM CDT WED AUG 27 2014

NOTE: "FAIR" INDICATES FEW OR NO CLOUDS BELOW 12,000 FEET WITH NO
SIGNIFICANT WEATHER AND/OR OBSTRUCTIONS TO VISIBILITY.


SDZ001>005-009-010-012>017-271100-
NORTHWEST AND NORTH CENTRAL SOUTH DAKOTA

CITY           SKY/WX    TMP DP  RH WIND       PRES   REMARKS
BUFFALO          N/A     50  49  96 NE5       30.09F
FAITH            N/A     51  50  96 E5        30.15R
MOBRIDGE       CLEAR     53  52  96 E7        30.13F
$$

SDZ012>016-024>037-041>051-057-063-072>074-271100-
SOUTHWEST AND SOUTH CENTRAL SOUTH DAKOTA

CITY           SKY/WX    TMP DP  RH WIND       PRES   REMARKS
RAPID CTY ARPT MOCLDY    58  54  86 N3        30.14F
PIERRE         CLOUDY    60  56  86 E9        30.10F
CUSTER         MOCLDY    57  53  86 NE7       30.22F
ELLSWORTH AFB  CLOUDY    59  54  84 NE2       30.14F
PHILIP         MOCLDY    55  53  93 CALM      30.12R
PINE RIDGE     FOG       55  55 100 MISG      30.14S VSB 1/4
WINNER         CLOUDY    67  65  93 S9        30.11S FOG
$$

SDZ004>011-016>023-039-040-271100-
NORTHEAST SOUTH DAKOTA

CITY           SKY/WX    TMP DP  RH WIND       PRES   REMARKS
ABERDEEN       MOCLDY    57  55  93 E5        30.16S
WATERTOWN      CLEAR     56  53  90 E6        30.17F
SISSETON         N/A     53  53 100 CALM      30.18S
$$

SDZ017-020-022-023-036>040-048>070-271100-
SOUTHEAST SOUTH DAKOTA

CITY           SKY/WX    TMP DP  RH WIND       PRES   REMARKS
SIOUX FALLS    PTCLDY    58  56  93 E6        30.15F
HURON          CLOUDY    59  57  93 E6        30.14F
CHAMBERLAIN    CLOUDY    61  60  96 SE7       30.12S
MITCHELL       PTCLDY    58  56  93 NE3       30.15R
YANKTON        CLEAR     59  57  94 E6        30.13F
$$

ABBREVIATIONS USED IN REMARKS
   TC - TEMPERATURE IN CELSIUS
  WCI - WIND CHILL INDEX
   HX - HEAT INDEX
  VSB - VISIBILITY




USA.gov is the U.S. government's official web portal to all federal, state and local government web resources and services.